Akron, OH

8:18 PM EDT on April 27, 2017 (GMT -0400)
Akron Fulton International

Weather History for KAKR - November, 2013

Change the Weather History Date:

Tuesday, November 5, 2013

  Actual Average (KCAK) Record (KCAK)
Temperature  
Mean Temperature 50 °F -  
Max Temperature 60 °F 51 °F 77 °F (2015)
Min Temperature 41 °F 36 °F 14 °F (1991)
Degree Days  
Heating Degree Days 14    
Moisture  
Dew Point 35 °F    
Average Humidity 56    
Maximum Humidity 66    
Minimum Humidity 47    
Precipitation  
Precipitation 0.00 in - - ()
Sea Level Pressure  
Sea Level Pressure 30.38 in    
Wind  
Wind Speed 5 mph (South)    
Max Wind Speed 10 mph    
Max Gust Speed -    
Visibility 10 miles    
Events      
Averages and records for this station are not official NWS values.
T = Trace of Precipitation, MM = Missing Value Source: NWS Daily Summary

Daily Weather History Graph

Daily Weather History Graph

Search for Another Location

Airport or City:

Trip Planner

Search our weather history database for the weather conditions in past years. The results will help you decide how hot, cold, wet, or windy it might be!

Date:

Astronomy

Nov. 05, 2013 Rise Set
Actual Time 7:01 AM EST 5:16 PM EST
Civil Twilight 6:32 AM EST 5:45 PM EST
Nautical Twilight 6:00 AM EST 6:18 PM EST
Astronomical Twilight 5:28 AM EST 6:50 PM EST
Moon 9:16 AM EST (11/5) 7:15 PM EST (11/5)
Length of Visible Light 11h 12m
Length of Day
10h 14m
Waxing Crescent, 6% of the Moon is Illuminated
Nov 5
Waxing Crescent
Nov 10
First Quarter
Nov 17
Full
Nov 25
Last Quarter
Dec 2
New

Hourly Weather History & Observations

Time (EST) Temp. Windchill Dew Point Humidity Pressure Visibility Wind Dir Wind Speed Gust Speed Precip Events Conditions
12:54 AM 43.0 °F 41.3 °F 26.1 °F 51% 30.41 in 10.0 mi South 3.5 mph - N/A   Clear
1:54 AM 41.0 °F 39.0 °F 27.0 °F 57% 30.41 in 10.0 mi South 3.5 mph - N/A   Clear
2:54 AM 43.0 °F 39.5 °F 28.0 °F 56% 30.42 in 10.0 mi South 5.8 mph - N/A   Clear
3:54 AM 44.1 °F 39.5 °F 28.9 °F 55% 30.42 in 10.0 mi South 8.1 mph - N/A   Scattered Clouds
4:54 AM 44.1 °F 42.5 °F 30.0 °F 58% 30.42 in 10.0 mi SSE 3.5 mph - N/A   Partly Cloudy
5:54 AM 45.0 °F 41.2 °F 30.9 °F 58% 30.43 in 10.0 mi South 6.9 mph - N/A   Partly Cloudy
6:54 AM 46.0 °F 41.4 °F 32.0 °F 58% 30.43 in 10.0 mi South 9.2 mph - N/A   Overcast
7:54 AM 46.9 °F - 32.0 °F 56% 30.43 in 10.0 mi South 5.8 mph - N/A   Overcast
8:54 AM 48.0 °F - 33.1 °F 56% 30.43 in 10.0 mi Variable 5.8 mph - N/A   Clear
9:54 AM 50.0 °F - 34.0 °F 54% 30.43 in 10.0 mi South 6.9 mph - N/A   Mostly Cloudy
10:54 AM 52.0 °F - 36.0 °F 54% 30.44 in 10.0 mi SSW 9.2 mph - N/A   Partly Cloudy
11:54 AM 55.0 °F - 37.9 °F 53% 30.42 in 10.0 mi South 6.9 mph - N/A   Partly Cloudy
12:54 PM 57.0 °F - 39.0 °F 51% 30.40 in 10.0 mi South 5.8 mph - N/A   Mostly Cloudy
1:54 PM 60.1 °F - 39.9 °F 47% 30.37 in 10.0 mi South 8.1 mph - N/A   Partly Cloudy
2:54 PM 59.0 °F - 39.9 °F 49% 30.37 in 10.0 mi South 10.4 mph - N/A   Clear
3:54 PM 57.0 °F - 41.0 °F 55% 30.36 in 10.0 mi SSW 5.8 mph - N/A   Clear
4:54 PM 57.0 °F - 39.0 °F 51% 30.34 in 10.0 mi Calm Calm - N/A   Partly Cloudy
5:54 PM 54.0 °F - 39.0 °F 57% 30.35 in 10.0 mi Calm Calm - N/A   Clear
6:54 PM 52.0 °F - 39.0 °F 61% 30.34 in 10.0 mi South 3.5 mph - N/A   Clear
7:54 PM 52.0 °F - 37.0 °F 57% 30.33 in 10.0 mi Calm Calm - N/A   Clear
8:54 PM 50.0 °F - 37.0 °F 61% 30.33 in 10.0 mi Calm Calm - N/A   Clear
9:54 PM 48.0 °F - 37.0 °F 66% 30.33 in 10.0 mi South 4.6 mph - N/A   Clear
10:54 PM 48.9 °F - 36.0 °F 61% 30.30 in 10.0 mi South 4.6 mph - N/A   Clear
11:54 PM 48.0 °F - 34.0 °F 58% 30.29 in 10.0 mi Calm Calm - N/A   Clear